Weather in Altinozu

Turkey     36°06′56″N   36°14′53″E
temp.,
°C
wind,
m/s
gust,
m/s
humid.,
%
clouds,
%
prec.,
mm/h
press.,
hPa
HPBL,
m
20 june, sun
sun2000:00+18wsw46912 0.0 1010164
03:00+17wsw45936 0.0 1010143
06:00+18wsw358911 0.0 1010184
09:00+23w46581 0.0 1010799
12:00+27wsw88450 0.0 10101032
15:00+28w66400 0.0 1009958
18:00+25w56460 0.0 1008690
21:00+18w34800 0.0 1010100
21 june, mon
mon2100:00+17w34923 0.0 1011107
03:00+17wsw33926 0.0 101064
06:00+17wsw22894 0.0 101151
09:00+23w34550 0.0 1011987
12:00+28wsw66390 0.0 10111685
15:00+28wsw77330 0.0 10101574
18:00+25wsw57450 0.0 1009695
21:00+19w34801 0.0 101186
22 june, tue
tue2200:00+18w339112 0.0 1011100
03:00+17wsw22892 0.0 101062
06:00+17w23895 0.0 101189
09:00+23w34560 0.0 1011818
12:00+28w65420 0.0 10101382
15:00+27wsw88410 0.0 10091127
18:00+25wsw79460 0.0 1010739
21:00+19w35902 0.0 1011137
23 june, wed
wed2300:00+18wsw349216 0.0 1011147
03:00+18wsw349311 0.0 1011115
06:00+18wsw339010 0.0 1011143
09:00+25w35540 0.0 1011779
12:00+29w55390 0.0 10111265
15:00+30wsw67380 0.0 10101043
18:00+27w57440 0.0 1010629
21:00+20w33720 0.0 101265
24 june, thu
thu2400:00+19w32740 0.0 101237
03:00+19w22780 0.0 101128
06:00+19w22780 0.0 101132
09:00+26wnw23470 0.0 1011670
12:00+32w33330 0.0 10101580
15:00+33w64300 0.0 10081685
18:00+30w45330 0.0 1008666
21:00+23w32590 0.0 100937